Time,TemperatureF,DewpointF,PressureIn,WindDirection,WindDirectionDegrees,WindSpeedMPH,WindSpeedGustMPH,Humidity,HourlyPrecipIn,Conditions,Clouds,dailyrainin,SoftwareType,DateUTC
2015-02-01 00:00:00,65.4,53.3,16.68,East,80,0.0,3.0,65,0.00,,---,0.00,VWS V15.00,2015-02-01 05:00:00,
2015-02-01 00:05:00,65.3,53.2,16.68,SE,128,3.0,5.0,65,0.00,,---,0.00,VWS V15.00,2015-02-01 05:05:00,
2015-02-01 00:15:00,65.1,52.6,16.68,ENE,67,0.0,9.0,64,0.00,,---,0.00,VWS V15.00,2015-02-01 05:15:00,
2015-02-01 00:25:00,64.9,52.5,16.68,East,94,1.0,9.0,64,0.00,,---,0.00,VWS V15.00,2015-02-01 05:25:00,
2015-02-01 00:30:00,64.8,52.3,16.68,ENE,72,1.0,3.0,64,0.00,,---,0.00,VWS V15.00,2015-02-01 05:30:00,
2015-02-01 00:35:00,64.8,52.3,16.68,SE,128,1.0,5.0,64,0.00,,---,0.00,VWS V15.00,2015-02-01 05:35:00,
2015-02-01 00:40:00,64.8,52.8,16.68,ESE,110,2.0,5.0,65,0.00,,---,0.00,VWS V15.00,2015-02-01 05:40:00,
2015-02-01 00:45:00,64.8,52.8,16.68,NE,54,0.0,7.0,65,0.00,,---,0.00,VWS V15.00,2015-02-01 05:45:00,
2015-02-01 00:50:00,64.8,52.8,16.68,ENE,71,4.0,7.0,65,0.00,,---,0.00,VWS V15.00,2015-02-01 05:50:00,
2015-02-01 00:55:00,64.9,52.9,16.68,ESE,115,2.0,7.0,65,0.00,,---,0.00,VWS V15.00,2015-02-01 05:55:00,
2015-02-01 01:00:00,64.9,52.9,16.68,ENE,78,3.0,4.0,65,0.00,,---,0.00,VWS V15.00,2015-02-01 06:00:00,
2015-02-01 01:05:00,65.0,53.0,16.68,East,80,2.0,7.0,65,0.00,,---,0.00,VWS V15.00,2015-02-01 06:05:00,
2015-02-01 01:10:00,65.0,53.0,16.68,ESE,121,3.0,7.0,65,0.00,,---,0.00,VWS V15.00,2015-02-01 06:10:00,
2015-02-01 01:20:00,65.0,53.0,16.68,East,94,1.0,7.0,65,0.00,,---,0.00,VWS V15.00,2015-02-01 06:20:00,
2015-02-01 01:25:00,65.0,53.0,16.68,East,99,2.0,7.0,65,0.00,,---,0.00,VWS V15.00,2015-02-01 06:25:00,
2015-02-01 01:30:00,64.9,53.3,16.68,ENE,66,2.0,4.0,66,0.00,,---,0.00,VWS V15.00,2015-02-01 06:30:00,
2015-02-01 01:35:00,64.9,53.3,16.68,East,92,0.0,4.0,66,0.00,,---,0.00,VWS V15.00,2015-02-01 06:35:00,
2015-02-01 01:40:00,64.9,53.7,16.68,ESE,123,3.0,4.0,67,0.00,,---,0.00,VWS V15.00,2015-02-01 06:40:00,
2015-02-01 01:45:00,65.0,54.2,16.68,ENE,58,0.0,8.0,68,0.00,,---,0.00,VWS V15.00,2015-02-01 06:45:00,
2015-02-01 01:50:00,65.0,54.2,16.68,ESE,107,1.0,8.0,68,0.00,,---,0.00,VWS V15.00,2015-02-01 06:50:00,
2015-02-01 01:55:00,65.0,54.2,16.68,ESE,113,2.0,8.0,68,0.00,,---,0.00,VWS V15.00,2015-02-01 06:55:00,
2015-02-01 02:00:00,65.0,54.2,16.68,SE,129,1.0,3.0,68,0.00,,---,0.00,VWS V15.00,2015-02-01 07:00:00,
2015-02-01 02:05:00,65.0,54.2,16.68,NE,56,3.0,6.0,68,0.00,,---,0.00,VWS V15.00,2015-02-01 07:05:00,
2015-02-01 02:10:00,65.0,54.2,16.68,ENE,67,5.0,6.0,68,0.00,,---,0.00,VWS V15.00,2015-02-01 07:10:00,
2015-02-01 02:15:00,65.0,53.8,16.68,ENE,71,0.0,8.0,67,0.00,,---,0.00,VWS V15.00,2015-02-01 07:15:00,
2015-02-01 02:20:00,65.1,53.5,16.68,SE,129,1.0,8.0,66,0.00,,---,0.00,VWS V15.00,2015-02-01 07:20:00,
2015-02-01 02:25:00,65.0,53.0,16.68,East,84,3.0,8.0,65,0.00,,---,0.00,VWS V15.00,2015-02-01 07:25:00,
2015-02-01 02:30:00,65.1,52.6,16.68,East,87,5.0,5.0,64,0.00,,---,0.00,VWS V15.00,2015-02-01 07:30:00,
2015-02-01 02:35:00,65.0,53.0,16.68,East,94,1.0,5.0,65,0.00,,---,0.00,VWS V15.00,2015-02-01 07:35:00,
2015-02-01 02:40:00,64.8,52.8,16.68,East,95,0.0,5.0,65,0.00,,---,0.00,VWS V15.00,2015-02-01 07:40:00,
2015-02-01 02:45:00,64.5,52.5,16.68,ESE,117,2.0,5.0,65,0.00,,---,0.00,VWS V15.00,2015-02-01 07:45:00,
2015-02-01 02:50:00,64.4,52.8,16.68,ESE,115,1.0,5.0,66,0.00,,---,0.00,VWS V15.00,2015-02-01 07:50:00,
2015-02-01 02:55:00,64.3,52.7,16.68,ESE,118,0.0,5.0,66,0.00,,---,0.00,VWS V15.00,2015-02-01 07:55:00,
2015-02-01 03:00:00,64.0,52.8,16.68,ESE,113,3.0,4.0,67,0.00,,---,0.00,VWS V15.00,2015-02-01 08:00:00,
2015-02-01 03:05:00,64.0,52.8,16.68,SE,130,0.0,4.0,67,0.00,,---,0.00,VWS V15.00,2015-02-01 08:05:00,
2015-02-01 03:10:00,63.8,53.0,16.68,ESE,117,1.0,4.0,68,0.00,,---,0.00,VWS V15.00,2015-02-01 08:10:00,
2015-02-01 03:15:00,63.8,53.0,16.68,East,91,2.0,5.0,68,0.00,,---,0.00,VWS V15.00,2015-02-01 08:15:00,
2015-02-01 03:20:00,63.9,53.5,16.68,NE,42,0.0,6.0,69,0.00,,---,0.00,VWS V15.00,2015-02-01 08:20:00,
2015-02-01 03:25:00,64.0,53.2,16.68,SE,130,0.0,6.0,68,0.00,,---,0.00,VWS V15.00,2015-02-01 08:25:00,
2015-02-01 03:30:00,63.9,53.1,16.68,ESE,115,0.0,3.0,68,0.00,,---,0.00,VWS V15.00,2015-02-01 08:30:00,
2015-02-01 03:35:00,63.8,53.0,16.68,ENE,74,1.0,3.0,68,0.00,,---,0.00,VWS V15.00,2015-02-01 08:35:00,
2015-02-01 03:40:00,63.6,52.9,16.68,East,79,0.0,4.0,68,0.00,,---,0.00,VWS V15.00,2015-02-01 08:40:00,
2015-02-01 03:45:00,63.6,53.3,16.68,ESE,123,0.0,4.0,69,0.00,,---,0.00,VWS V15.00,2015-02-01 08:45:00,
2015-02-01 03:50:00,63.6,53.7,16.68,ESE,119,1.0,5.0,70,0.00,,---,0.00,VWS V15.00,2015-02-01 08:50:00,
2015-02-01 03:55:00,63.6,53.7,16.68,ENE,65,0.0,5.0,70,0.00,,---,0.00,VWS V15.00,2015-02-01 08:55:00,
2015-02-01 04:00:00,63.5,53.5,16.68,ESE,113,2.0,4.0,70,0.00,,---,0.00,VWS V15.00,2015-02-01 09:00:00,
2015-02-01 04:05:00,63.6,54.0,16.68,ESE,115,1.0,4.0,71,0.00,,---,0.00,VWS V15.00,2015-02-01 09:05:00,
2015-02-01 04:10:00,63.8,54.2,16.68,East,96,1.0,4.0,71,0.00,,---,0.00,VWS V15.00,2015-02-01 09:10:00,
2015-02-01 04:15:00,64.0,54.4,16.68,ENE,76,0.0,5.0,71,0.00,,---,0.00,VWS V15.00,2015-02-01 09:15:00,
2015-02-01 04:20:00,64.0,54.8,16.68,ENE,76,0.0,5.0,72,0.00,,---,0.00,VWS V15.00,2015-02-01 09:20:00,
2015-02-01 04:25:00,64.0,54.8,16.68,East,83,0.0,5.0,72,0.00,,---,0.00,VWS V15.00,2015-02-01 09:25:00,
2015-02-01 04:30:00,64.0,54.8,16.68,ENE,70,1.0,7.0,72,0.00,,---,0.00,VWS V15.00,2015-02-01 09:30:00,
2015-02-01 04:35:00,64.3,55.1,16.68,ESE,118,0.0,7.0,72,0.00,,---,0.00,VWS V15.00,2015-02-01 09:35:00,
2015-02-01 04:40:00,64.5,55.3,16.68,ENE,69,2.0,7.0,72,0.00,,---,0.00,VWS V15.00,2015-02-01 09:40:00,
2015-02-01 04:45:00,64.9,55.3,16.68,ENE,59,0.0,7.0,71,0.00,,---,0.00,VWS V15.00,2015-02-01 09:45:00,
2015-02-01 04:50:00,65.0,55.4,16.68,East,87,1.0,7.0,71,0.00,,---,0.00,VWS V15.00,2015-02-01 09:50:00,
2015-02-01 04:55:00,65.0,55.4,16.68,East,86,2.0,7.0,71,0.00,,---,0.00,VWS V15.00,2015-02-01 09:55:00,
2015-02-01 05:00:00,65.1,55.5,16.68,East,96,5.0,5.0,71,0.00,,---,0.00,VWS V15.00,2015-02-01 10:00:00,
2015-02-01 05:05:00,65.3,55.7,16.68,ENE,73,0.0,7.0,71,0.00,,---,0.00,VWS V15.00,2015-02-01 10:05:00,
2015-02-01 05:10:00,65.3,55.7,16.68,ESE,103,3.0,7.0,71,0.00,,---,0.00,VWS V15.00,2015-02-01 10:10:00,
2015-02-01 05:15:00,65.4,55.8,16.68,East,81,3.0,7.0,71,0.00,,---,0.00,VWS V15.00,2015-02-01 10:15:00,
2015-02-01 05:20:00,65.5,55.9,16.68,SSE,157,7.0,8.0,71,0.00,,---,0.00,VWS V15.00,2015-02-01 10:20:00,
2015-02-01 05:25:00,65.7,56.4,16.68,ENE,70,9.0,9.0,72,0.00,,---,0.00,VWS V15.00,2015-02-01 10:25:00,
2015-02-01 05:30:00,65.8,56.2,16.68,SE,134,2.0,8.0,71,0.00,,---,0.00,VWS V15.00,2015-02-01 10:30:00,
2015-02-01 05:35:00,65.7,56.0,16.68,SE,124,3.0,8.0,71,0.00,,---,0.00,VWS V15.00,2015-02-01 10:35:00,
2015-02-01 05:40:00,65.7,56.0,16.68,ESE,121,0.0,8.0,71,0.00,,---,0.00,VWS V15.00,2015-02-01 10:40:00,
2015-02-01 05:45:00,65.8,56.2,16.68,ESE,117,2.0,9.0,71,0.00,,---,0.00,VWS V15.00,2015-02-01 10:45:00,
2015-02-01 05:50:00,65.9,56.2,16.68,East,100,3.0,9.0,71,0.00,,---,0.00,VWS V15.00,2015-02-01 10:50:00,
2015-02-01 05:55:00,65.9,55.8,16.68,ENE,78,2.0,9.0,70,0.00,,---,0.00,VWS V15.00,2015-02-01 10:55:00,
2015-02-01 06:00:00,65.9,55.5,16.68,SE,140,0.0,5.0,69,0.00,,---,0.00,VWS V15.00,2015-02-01 11:00:00,
2015-02-01 06:05:00,65.7,54.9,16.68,ESE,111,2.0,5.0,68,0.00,,---,0.00,VWS V15.00,2015-02-01 11:05:00,
2015-02-01 06:10:00,65.5,54.3,16.68,SE,128,3.0,5.0,67,0.00,,---,0.00,VWS V15.00,2015-02-01 11:10:00,
2015-02-01 06:15:00,65.6,54.0,16.68,ESE,121,0.0,5.0,66,0.00,,---,0.00,VWS V15.00,2015-02-01 11:15:00,
2015-02-01 06:20:00,65.6,54.0,16.68,ESE,112,0.0,5.0,66,0.00,,---,0.00,VWS V15.00,2015-02-01 11:20:00,
2015-02-01 06:25:00,65.5,53.8,16.68,ESE,112,0.0,5.0,66,0.00,,---,0.00,VWS V15.00,2015-02-01 11:25:00,
2015-02-01 06:30:00,65.5,54.3,16.68,SE,132,0.0,2.0,67,0.00,,---,0.00,VWS V15.00,2015-02-01 11:30:00,
2015-02-01 06:35:00,65.6,54.8,16.68,SE,131,0.0,4.0,68,0.00,,---,0.00,VWS V15.00,2015-02-01 11:35:00,
2015-02-01 06:40:00,65.7,54.9,16.68,SE,137,2.0,4.0,68,0.00,,---,0.00,VWS V15.00,2015-02-01 11:40:00,
2015-02-01 06:45:00,65.9,55.0,16.68,SE,138,1.0,4.0,68,0.00,,---,0.00,VWS V15.00,2015-02-01 11:45:00,
2015-02-01 06:50:00,66.1,55.2,16.68,ESE,109,2.0,7.0,68,0.00,,---,0.00,VWS V15.00,2015-02-01 11:50:00,
2015-02-01 06:55:00,66.1,54.8,16.68,NE,48,1.0,7.0,67,0.00,,---,0.00,VWS V15.00,2015-02-01 11:55:00,
2015-02-01 07:00:00,65.8,53.7,16.68,ESE,108,3.0,6.0,65,0.00,,---,0.00,VWS V15.00,2015-02-01 12:00:00,
2015-02-01 07:05:00,65.7,52.8,16.68,East,85,2.0,6.0,63,0.00,,---,0.00,VWS V15.00,2015-02-01 12:05:00,
2015-02-01 07:10:00,65.6,52.2,16.68,SE,131,0.0,6.0,62,0.00,,---,0.00,VWS V15.00,2015-02-01 12:10:00,
2015-02-01 07:15:00,65.4,52.5,16.68,ENE,71,0.0,6.0,63,0.00,,---,0.00,VWS V15.00,2015-02-01 12:15:00,
2015-02-01 07:20:00,65.3,52.4,16.68,ESE,113,0.0,7.0,63,0.00,,---,0.00,VWS V15.00,2015-02-01 12:20:00,
2015-02-01 07:25:00,65.4,52.9,16.68,ESE,119,1.0,7.0,64,0.00,,---,0.00,VWS V15.00,2015-02-01 12:25:00,
2015-02-01 07:30:00,65.4,53.3,16.68,ESE,105,0.0,1.0,65,0.00,,---,0.00,VWS V15.00,2015-02-01 12:30:00,
2015-02-01 07:35:00,65.4,54.2,16.68,ESE,103,0.0,3.0,67,0.00,,---,0.00,VWS V15.00,2015-02-01 12:35:00,
2015-02-01 07:40:00,65.4,55.0,16.68,SE,125,0.0,3.0,69,0.00,,---,0.00,VWS V15.00,2015-02-01 12:40:00,
2015-02-01 07:45:00,65.5,55.5,16.68,East,91,1.0,3.0,70,0.00,,---,0.00,VWS V15.00,2015-02-01 12:45:00,
2015-02-01 07:50:00,65.7,56.0,16.68,East,91,0.0,3.0,71,0.00,,---,0.00,VWS V15.00,2015-02-01 12:50:00,
2015-02-01 07:55:00,65.8,56.5,16.68,East,90,1.0,3.0,72,0.00,,---,0.00,VWS V15.00,2015-02-01 12:55:00,
2015-02-01 08:00:00,66.0,56.7,16.68,ENE,71,1.0,3.0,72,0.00,,---,0.00,VWS V15.00,2015-02-01 13:00:00,
2015-02-01 08:05:00,66.2,56.5,16.68,ENE,61,2.0,6.0,71,0.00,,---,0.00,VWS V15.00,2015-02-01 13:05:00,
2015-02-01 08:10:00,66.4,56.7,16.68,ENE,69,4.0,7.0,71,0.00,,---,0.00,VWS V15.00,2015-02-01 13:10:00,
2015-02-01 08:15:00,66.6,56.9,16.68,SE,126,2.0,7.0,71,0.00,,---,0.00,VWS V15.00,2015-02-01 13:15:00,
2015-02-01 08:20:00,66.8,57.1,16.68,ENE,65,2.0,8.0,71,0.00,,---,0.00,VWS V15.00,2015-02-01 13:20:00,
2015-02-01 08:25:00,66.9,56.8,16.68,ESE,111,0.0,8.0,70,0.00,,---,0.00,VWS V15.00,2015-02-01 13:25:00,
2015-02-01 08:30:00,67.0,57.3,16.68,NE,56,2.0,5.0,71,0.00,,---,0.00,VWS V15.00,2015-02-01 13:30:00,
2015-02-01 08:35:00,67.1,56.6,16.68,ENE,78,1.0,5.0,69,0.00,,---,0.00,VWS V15.00,2015-02-01 13:35:00,
2015-02-01 08:40:00,67.3,57.2,16.68,NE,52,2.0,6.0,70,0.00,,---,0.00,VWS V15.00,2015-02-01 13:40:00,
2015-02-01 08:45:00,67.7,57.2,16.68,East,80,5.0,10.0,69,0.00,,---,0.00,VWS V15.00,2015-02-01 13:45:00,
2015-02-01 08:50:00,68.5,57.5,16.68,ESE,111,2.0,10.0,68,0.00,,---,0.00,VWS V15.00,2015-02-01 13:50:00,
2015-02-01 08:55:00,68.9,57.5,16.68,SSE,164,3.0,10.0,67,0.00,,---,0.00,VWS V15.00,2015-02-01 13:55:00,
2015-02-01 09:00:00,68.7,57.3,16.68,ESE,119,4.0,8.0,67,0.00,,---,0.00,VWS V15.00,2015-02-01 14:00:00,
2015-02-01 09:05:00,68.5,57.1,16.68,ENE,78,2.0,9.0,67,0.00,,---,0.00,VWS V15.00,2015-02-01 14:05:00,
2015-02-01 09:10:00,68.8,57.8,16.68,ESE,106,5.0,9.0,68,0.00,,---,0.00,VWS V15.00,2015-02-01 14:10:00,
2015-02-01 09:15:00,68.8,57.0,16.68,SE,144,4.0,10.0,66,0.00,,---,0.00,VWS V15.00,2015-02-01 14:15:00,
2015-02-01 09:20:00,68.5,57.1,16.68,SE,129,5.0,10.0,67,0.00,,---,0.00,VWS V15.00,2015-02-01 14:20:00,
2015-02-01 09:25:00,68.4,57.4,16.68,SE,124,1.0,10.0,68,0.00,,---,0.00,VWS V15.00,2015-02-01 14:25:00,
2015-02-01 09:30:00,68.7,57.7,16.68,ESE,107,7.0,7.0,68,0.00,,---,0.00,VWS V15.00,2015-02-01 14:30:00,
2015-02-01 09:35:00,69.1,57.7,16.68,East,84,1.0,11.0,67,0.00,,---,0.00,VWS V15.00,2015-02-01 14:35:00,
2015-02-01 09:40:00,69.4,57.6,16.68,SE,131,2.0,11.0,66,0.00,,---,0.00,VWS V15.00,2015-02-01 14:40:00,
2015-02-01 09:45:00,69.9,56.8,16.68,NE,51,5.0,11.0,63,0.00,,---,0.00,VWS V15.00,2015-02-01 14:45:00,
2015-02-01 09:50:00,69.8,56.2,16.68,SE,146,4.0,11.0,62,0.00,,---,0.00,VWS V15.00,2015-02-01 14:50:00,
2015-02-01 09:55:00,70.4,56.8,16.68,ESE,116,2.0,11.0,62,0.00,,---,0.00,VWS V15.00,2015-02-01 14:55:00,
2015-02-01 10:00:00,70.6,56.5,16.68,SE,130,0.0,9.0,61,0.00,,---,0.00,VWS V15.00,2015-02-01 15:00:00,
2015-02-01 10:05:00,70.6,56.5,16.68,SSW,211,5.0,11.0,61,0.00,,---,0.00,VWS V15.00,2015-02-01 15:05:00,
2015-02-01 10:10:00,71.0,57.3,16.68,East,80,5.0,11.0,62,0.00,,---,0.00,VWS V15.00,2015-02-01 15:10:00,
2015-02-01 10:15:00,71.9,57.7,16.68,SSE,150,3.0,11.0,61,0.00,,---,0.00,VWS V15.00,2015-02-01 15:15:00,
2015-02-01 10:20:00,72.4,57.8,16.68,SE,132,1.0,11.0,60,0.00,,---,0.00,VWS V15.00,2015-02-01 15:20:00,
2015-02-01 10:25:00,72.1,57.0,16.68,SE,146,5.0,11.0,59,0.00,,---,0.00,VWS V15.00,2015-02-01 15:25:00,
2015-02-01 10:30:00,71.7,57.5,16.68,SSE,155,5.0,6.0,61,0.00,,---,0.00,VWS V15.00,2015-02-01 15:30:00,
2015-02-01 10:35:00,71.5,56.9,16.68,SSE,153,2.0,12.0,60,0.00,,---,0.00,VWS V15.00,2015-02-01 15:35:00,
2015-02-01 10:40:00,71.1,57.0,16.68,SE,138,3.0,12.0,61,0.00,,---,0.00,VWS V15.00,2015-02-01 15:40:00,
2015-02-01 10:45:00,71.0,57.3,16.68,NNE,28,6.0,12.0,62,0.00,,---,0.00,VWS V15.00,2015-02-01 15:45:00,
2015-02-01 10:50:00,71.4,58.2,16.68,SE,137,8.0,12.0,63,0.00,,---,0.00,VWS V15.00,2015-02-01 15:50:00,
2015-02-01 10:55:00,71.5,57.8,16.68,ENE,65,3.0,12.0,62,0.00,,---,0.00,VWS V15.00,2015-02-01 15:55:00,
2015-02-01 11:00:00,72.1,58.4,16.68,ESE,105,2.0,6.0,62,0.00,,---,0.00,VWS V15.00,2015-02-01 16:00:00,
2015-02-01 11:05:00,72.1,57.9,16.68,SE,132,3.0,9.0,61,0.00,,---,0.00,VWS V15.00,2015-02-01 16:05:00,
2015-02-01 11:10:00,71.6,57.9,16.68,SSW,194,1.0,9.0,62,0.00,,---,0.00,VWS V15.00,2015-02-01 16:10:00,
2015-02-01 11:15:00,71.5,58.3,16.68,South,190,3.0,9.0,63,0.00,,---,0.00,VWS V15.00,2015-02-01 16:15:00,
2015-02-01 11:20:00,71.5,58.3,16.68,East,83,2.0,9.0,63,0.00,,---,0.00,VWS V15.00,2015-02-01 16:20:00,
2015-02-01 11:25:00,71.7,58.9,16.68,SE,133,8.0,9.0,64,0.00,,---,0.00,VWS V15.00,2015-02-01 16:25:00,
2015-02-01 11:30:00,71.7,58.9,16.68,South,182,3.0,9.0,64,0.00,,---,0.00,VWS V15.00,2015-02-01 16:30:00,
2015-02-01 11:35:00,71.8,59.0,16.68,East,93,6.0,9.0,64,0.00,,---,0.00,VWS V15.00,2015-02-01 16:35:00,
2015-02-01 11:40:00,71.7,58.9,16.68,SE,134,4.0,9.0,64,0.00,,---,0.00,VWS V15.00,2015-02-01 16:40:00,
2015-02-01 11:45:00,71.3,58.5,16.68,SE,146,4.0,9.0,64,0.00,,---,0.00,VWS V15.00,2015-02-01 16:45:00,
2015-02-01 11:50:00,71.0,59.1,16.68,SSW,198,4.0,9.0,66,0.00,,---,0.00,VWS V15.00,2015-02-01 16:50:00,
2015-02-01 11:55:00,70.8,59.3,16.68,ESE,119,3.0,9.0,67,0.00,,---,0.00,VWS V15.00,2015-02-01 16:55:00,
2015-02-01 12:00:00,70.8,59.3,16.68,SSE,157,1.0,8.0,67,0.00,,---,0.00,VWS V15.00,2015-02-01 17:00:00,
2015-02-01 12:05:00,70.8,59.7,16.68,SE,132,1.0,8.0,68,0.00,,---,0.00,VWS V15.00,2015-02-01 17:05:00,
2015-02-01 12:10:00,70.6,59.5,16.68,SE,126,3.0,9.0,68,0.00,,---,0.00,VWS V15.00,2015-02-01 17:10:00,
2015-02-01 12:15:00,70.5,59.8,16.68,ESE,110,1.0,10.0,69,0.00,,---,0.00,VWS V15.00,2015-02-01 17:15:00,
2015-02-01 12:19:00,70.6,60.3,16.68,ENE,65,1.0,10.0,70,0.00,,---,0.00,VWS V15.00,2015-02-01 17:19:00,
2015-02-01 12:25:00,70.5,59.8,16.68,SE,135,0.0,10.0,69,0.00,,---,0.00,VWS V15.00,2015-02-01 17:25:00,
2015-02-01 12:29:00,70.8,60.1,16.68,SE,133,0.0,6.0,69,0.00,,---,0.00,VWS V15.00,2015-02-01 17:29:00,
2015-02-01 12:34:00,72.3,60.7,16.68,East,82,2.0,9.0,67,0.00,,---,0.00,VWS V15.00,2015-02-01 17:34:00,
2015-02-01 12:39:00,73.4,60.0,16.68,East,93,6.0,9.0,63,0.00,,---,0.00,VWS V15.00,2015-02-01 17:39:00,
2015-02-01 12:44:00,72.8,59.5,16.68,ESE,121,4.0,9.0,63,0.00,,---,0.00,VWS V15.00,2015-02-01 17:44:00,
2015-02-01 12:49:00,72.3,59.0,16.68,ESE,123,3.0,9.0,63,0.00,,---,0.00,VWS V15.00,2015-02-01 17:49:00,
2015-02-01 12:50:00,72.3,59.0,16.68,ESE,115,4.0,9.0,63,0.00,,---,0.00,VWS V15.00,2015-02-01 17:50:00,
2015-02-01 12:55:00,73.0,59.7,16.68,East,86,5.0,9.0,63,0.00,,---,0.00,VWS V15.00,2015-02-01 17:55:00,
2015-02-01 13:00:00,73.1,58.4,16.68,SE,145,3.0,11.0,60,0.00,,---,0.00,VWS V15.00,2015-02-01 18:00:00,
2015-02-01 13:05:00,73.5,58.8,16.68,ESE,110,2.0,11.0,60,0.00,,---,0.00,VWS V15.00,2015-02-01 18:05:00,
2015-02-01 13:10:00,73.9,58.2,16.68,East,85,3.0,12.0,58,0.00,,---,0.00,VWS V15.00,2015-02-01 18:10:00,
2015-02-01 13:15:00,74.4,58.2,16.68,ESE,118,3.0,12.0,57,0.00,,---,0.00,VWS V15.00,2015-02-01 18:15:00,
2015-02-01 13:20:00,74.5,58.8,16.68,SE,141,6.0,12.0,58,0.00,,---,0.00,VWS V15.00,2015-02-01 18:20:00,
2015-02-01 13:25:00,74.7,58.5,16.68,SSE,147,2.0,12.0,57,0.00,,---,0.00,VWS V15.00,2015-02-01 18:25:00,
2015-02-01 13:30:00,74.4,58.2,16.68,SE,141,8.0,8.0,57,0.00,,---,0.00,VWS V15.00,2015-02-01 18:30:00,
2015-02-01 13:35:00,74.3,57.6,16.68,SE,134,8.0,10.0,56,0.00,,---,0.00,VWS V15.00,2015-02-01 18:35:00,
2015-02-01 13:40:00,74.4,56.7,16.68,SE,129,4.0,10.0,54,0.00,,---,0.00,VWS V15.00,2015-02-01 18:40:00,
2015-02-01 13:45:00,74.8,57.6,16.68,East,87,3.0,10.0,55,0.00,,---,0.00,VWS V15.00,2015-02-01 18:45:00,
2015-02-01 13:50:00,74.5,57.8,16.68,East,92,2.0,10.0,56,0.00,,---,0.00,VWS V15.00,2015-02-01 18:50:00,
2015-02-01 13:55:00,74.0,58.8,16.68,SSE,149,4.0,10.0,59,0.01,,---,0.01,VWS V15.00,2015-02-01 18:55:00,
2015-02-01 14:00:00,73.2,58.5,16.68,South,171,4.0,7.0,60,0.01,,---,0.01,VWS V15.00,2015-02-01 19:00:00,
2015-02-01 14:05:00,73.3,58.1,16.68,ESE,119,9.0,10.0,59,0.01,,---,0.01,VWS V15.00,2015-02-01 19:05:00,
2015-02-01 14:10:00,73.3,59.0,16.68,East,92,5.0,10.0,61,0.01,,---,0.01,VWS V15.00,2015-02-01 19:10:00,
2015-02-01 14:15:00,72.9,59.1,16.68,ESE,103,2.0,10.0,62,0.02,,---,0.02,VWS V15.00,2015-02-01 19:15:00,
2015-02-01 14:20:00,73.0,60.1,16.68,SE,146,3.0,10.0,64,0.03,,---,0.03,VWS V15.00,2015-02-01 19:20:00,
2015-02-01 14:25:00,72.4,60.0,16.68,South,176,3.0,10.0,65,0.03,,---,0.03,VWS V15.00,2015-02-01 19:25:00,
2015-02-01 14:30:00,72.2,59.8,16.68,SE,136,1.0,8.0,65,0.03,,---,0.03,VWS V15.00,2015-02-01 19:30:00,